Regional Weather Roundup
Issued by NWS State College, PA

Home | Current Version | Previous Version | Text Only | Print | Product List | Glossary On
Versions: 1 2 3 4 5 6 7 8 9 10 11 12 13 14 15 16 17 18 19 20 21 22 23 24 25 26 27 28 29 30 31 32 33 34 35 36 37 38 39 40 41 42 43 44 45 46 47 48 49 50
000
ASUS41 KCTP 021610
RWRCTP

REGIONAL WEATHER ROUNDUP
NATIONAL WEATHER SERVICE STATE COLLEGE PA
1200 PM EDT TUE SEP 02 2014

Note: "fair" indicates few or no clouds below 12,000 feet with no
significant weather and/or obstructions to visibility.

* = STATION THAT DOES NOT REPORT PRECIPITATION /E.G. RAIN...SNOW...ETC/
    THUNDER OR FOG.

PAZ002>004-007>009-013>016-020>023-029>032-021700-
WESTERN PENNSYLVANIA

CITY           SKY/WX    TMP DP  RH WIND       PRES   REMARKS
ERIE           CLOUDY    78  65  63 SW7       29.89F
MEADVILLE      PTSUNNY   75  65  70 VRB6G17   29.92F
FRANKLIN*      PTSUNNY   79  66  65 SW14      29.96F
NEW CASTLE     FAIR      78  70  76 VRB3      29.93F
BEAVER COUNTY  MOSUNNY   81  68  65 SW9       29.95F
BUTLER*        PTSUNNY   79  68  69 SW8       29.97F
PITTSBURGH INT CLOUDY    77  69  76 SW7       29.96F
PITTSBURGH     CLOUDY    77  69  76 SW10      29.97F
INDIANA*       MOSUNNY   79  68  69 W5G15     30.01F
LATROBE        PTSUNNY   79  73  83 SW7       29.99F
WASHINGTON CO* PTSUNNY   77  72  83 S6        29.98F
$$

PAZ004>006-010>012-017>019-024>028-033>037-041-042-045-046-049>053-021700-
CENTRAL PENNSYLVANIA

CITY           SKY/WX    TMP DP  RH WIND       PRES   REMARKS
BRADFORD       PTSUNNY   75  63  66 W10       29.97F
DUBOIS         PTSUNNY   77  66  68 SW14      29.98S
CLEARFIELD     MOSUNNY   80  67  64 SW13G21   29.98F
JOHNSTOWN      CLOUDY    73  65  75 SW10      30.04S
ALTOONA        PTSUNNY   79  68  69 W8        30.00F
STATE COLLEGE  MOSUNNY   81  68  65 W10       29.97F
WILLIAMSPORT   MOSUNNY   85  69  58 W5        29.92F
SELINSGROVE    MOSUNNY   82  71  69 VRB6      29.95F
FT INDIANTOWN  MOSUNNY   87  72  61 SW12      29.96F
CAPITAL CITY   MOSUNNY   85  68  56 MISG      29.95F
HARRISBURG     PTSUNNY   86  70  58 NW7       29.94F
YORK           MOSUNNY   86  70  58 VRB6      29.97F
$$

PAZ038>040-043-044-047-048-054-055-060>062-067>071-021700-
EASTERN PENNSYLVANIA

CITY           SKY/WX    TMP DP  RH WIND       PRES   REMARKS
SCRANTON       MOSUNNY   84  67  56 SW8       29.94F
MOUNT POCONO   PTSUNNY   81  66  60 W10       30.01S
ALLENTOWN      PTSUNNY   85  69  58 W7        29.94F
QUAKERTOWN*    MOSUNNY   84  72  65 MISG      29.97S
READING        MOSUNNY   86  70  58 W8        29.94F
LANCASTER      PTSUNNY   85  70  60 W9        29.96F
COATESVILLE    MOSUNNY   84  72  65 NW7       29.99S
POTTSTOWN      MOSUNNY   85  70  60 W8        29.97F
BLUE BELL      MOSUNNY   88  72  58 NW3       29.95F
DOYLESTOWN     MOSUNNY   86  70  58 W8        29.95F
WILLOW GROVE   NOT AVBL
NORTH PHILA    MOSUNNY   90  69  50 W12       29.95F
PHILADELPHIA   PTSUNNY   89  69  51 W9        29.94F
$$



USA.gov is the U.S. government's official web portal to all federal, state and local government web resources and services.